Mount Carmel Municipal (AJG)

 

Airport Diagram
No Airport Diagram Available
Current Weather/Forecast (VFR Conditions)
METAR KAJG 071255Z AUTO 28006KT 10SM CLR 10/06 A3009 RMK AO2 T00980060
TAF

Airport Information

All Charts
General
Chart Name View
TAKEOFF MINIMUMS

Approaches
Chart Name Download
RNAV (GPS) RWY 04
RNAV (GPS) RWY 22
RNAV (GPS) RWY 31


Airport Statistics
Departures Arrivals Local
All Collected Stats since June 2016: 12 0 0
2021 Stats: 1 0 0
May Stats: 0 0 0

Inbound Traffic (Arrivals) - 0

No inbound traffic.


Outbound Traffic (Departures) - 0

No outbound traffic.


Local Traffic (Pattern) - 0

No local traffic.